Rajiv Gandhi International Airport

Airport
ICAO code: 
VOHS
IATA Code: 
HYD
Summary
ICAO Region: 
APAC
Territory: 
Location: 
Shamshabad, Telangana
Serving: 
Hyderabad
Elevation: 
2024 ft
Coordinates: 
Aerial View: 
17° 14' 11.967" N, 78° 25' 47.621" E
Metar
Observation
VOHS 262130Z 08005KT 5000 HZ SCT015 18/13 Q1014 TEMPO 3000
Station
RAJIV GANDHI INL
Date/Time
2022-01-26 21:30:00
Wind direction
80°
Wind speed
05 kts
Lowest cloud amount
scattered clouds
Temperature
18°C
Dew point
13°C
Humidity
72%
QNH
1014 hPa
Weather condition
n/a

Rajiv Gandhi International Airport, also known as Hyderabad International Airport, is an international airport located near Shamshabad, 22 km south of the central business district of Hyderabad, a city in the state of Andhra Pradesh, India.

Climatology

Tropical Savanna climate (Köppen climate classification Aw) - monthly mean temperatures above 18°C, and a pronounced dry season. A Tropical Savanna climate has more pronounced dry seasons than a Tropical Monsoon climate.

Runways

Designator Length Width Surface Rops
9/27 4260 60 paved Yes/Yes
Airport map: 
Aerial View: 

SKYbrary Partners:

Safety knowledge contributed by: